Weather History for KHJO - March, 2013

Change the Weather History Date:

Friday, March 22, 2013

  Actual Average Record
Temperature  
Mean Temperature 54 °F 56 °F  
Max Temperature 69 °F 69 °F 82 °F (2004)
Min Temperature 39 °F 43 °F 33 °F (2006)
Degree Days  
Heating Degree Days 11    
Month to date heating degree days 150  
Since 1 July heating degree days 2211  
Cooling Degree Days 0    
Month to date cooling degree days 2  
Year to date cooling degree days 2  
Growing Degree Days 4 (Base 50)    
Moisture  
Dew Point 31 °F    
Average Humidity 45    
Maximum Humidity 70    
Minimum Humidity 20    
Precipitation  
Precipitation 0.00 in 0.03 in 0.31 in (2005)
Month to date precipitation 0.49 1.26  
Year to date precipitation 1.16 5.03  
Since 1 July precipitation 3.16  
Snow  
Snow 0.00 in - - ()
Month to date snowfall 0.0  
Since 1 July snowfall 0.0  
Snow Depth 0.00 in    
Sea Level Pressure  
Sea Level Pressure 30.02 in    
Wind  
Wind Speed 8 mph (NW)    
Max Wind Speed 18 mph    
Max Gust Speed 23 mph    
Visibility 10 miles    
Events      
T = Trace of Precipitation, MM = Missing Value Source: NWS Daily Summary

Daily Weather History Graph

Daily Weather History Graph

Search for Another Location

Airport or City:

Trip Planner

Search our weather history database for the weather conditions in past years. The results will help you decide how hot, cold, wet, or windy it might be!

Date:

Astronomy

Mar. 22, 2013 Rise Set
Actual Time 6:58 AM PDT 7:12 PM PDT
Civil Twilight 6:33 AM PDT 7:38 PM PDT
Nautical Twilight 6:02 AM PDT 8:08 PM PDT
Astronomical Twilight 5:32 AM PDT 8:38 PM PDT
Moon 2:51 PM PDT (3/22) 3:54 AM PDT (3/22)
Length of Visible Light 13h 05m
Length of Day
12h 13m
Waxing Gibbous, 78% of the Moon is Illuminated
Mar 22
Waxing Gibbous
Mar 27
Full
Apr 2
Last Quarter
Apr 10
New
Apr 18
First Quarter

Hourly Weather History & Observations

Time (PDT) Temp. Dew Point Humidity Pressure Visibility Wind Dir Wind Speed Gust Speed Precip Events Conditions
12:53 AM 53.1 °F 34.0 °F 48% 29.98 in 10.0 mi WNW 11.5 mph - N/A   Clear
1:53 AM 51.1 °F 34.0 °F 52% 29.98 in 10.0 mi NNW 10.4 mph - N/A   Clear
2:53 AM 48.0 °F 34.0 °F 58% 29.98 in 10.0 mi NNW 4.6 mph - N/A   Clear
3:53 AM 43.0 °F 34.0 °F 71% 29.99 in 10.0 mi Calm Calm - N/A   Clear
4:53 AM 46.9 °F 32.0 °F 56% 29.99 in 10.0 mi NNW 3.5 mph - N/A   Clear
5:53 AM 41.0 °F 30.9 °F 67% 29.99 in 10.0 mi Calm Calm - N/A   Clear
6:53 AM 39.9 °F 30.9 °F 70% 30.01 in 10.0 mi Calm Calm - N/A   Clear
7:53 AM 46.9 °F 30.9 °F 54% 30.04 in 10.0 mi NNW 10.4 mph - N/A   Clear
8:53 AM 48.9 °F 32.0 °F 52% 30.05 in 10.0 mi NNW 12.7 mph - N/A   Clear
9:53 AM 52.0 °F 32.0 °F 47% 30.06 in 10.0 mi NW 10.4 mph - N/A   Clear
10:53 AM 55.9 °F 33.1 °F 42% 30.07 in 10.0 mi NW 10.4 mph - N/A   Clear
11:53 AM 57.9 °F 35.1 °F 42% 30.07 in 10.0 mi Calm Calm - N/A   Clear
12:42 PM 60.8 °F 35.6 °F 39% 30.05 in 10.0 mi NNE 6.9 mph - N/A   Partly Cloudy
12:53 PM 61.0 °F 36.0 °F 39% 30.06 in 10.0 mi NW 4.6 mph - N/A   Clear
1:53 PM 64.0 °F 37.0 °F 37% 30.04 in 10.0 mi Variable 3.5 mph 18.4 mph N/A   Clear
2:53 PM 66.0 °F 39.0 °F 37% 30.01 in 10.0 mi NW 11.5 mph 17.3 mph N/A   Clear
3:53 PM 68.0 °F 37.0 °F 32% 30.00 in 10.0 mi NW 13.8 mph - N/A   Clear
4:53 PM 69.1 °F 28.9 °F 22% 29.99 in 10.0 mi NW 17.3 mph 23.0 mph N/A   Clear
5:53 PM 66.9 °F 24.1 °F 20% 29.99 in 10.0 mi NNW 13.8 mph - N/A   Clear
6:53 PM 64.0 °F 23.0 °F 21% 29.99 in 10.0 mi NW 12.7 mph - N/A   Clear
7:53 PM 57.9 °F 24.1 °F 27% 30.01 in 10.0 mi NNW 6.9 mph 19.6 mph N/A   Clear
8:53 PM 57.0 °F 24.1 °F 28% 30.03 in 10.0 mi NW 10.4 mph - N/A   Clear
9:53 PM 55.9 °F 23.0 °F 28% 30.04 in 10.0 mi NW 6.9 mph - N/A   Clear
10:53 PM 52.0 °F 23.0 °F 32% 30.06 in 10.0 mi West 8.1 mph - N/A   Clear
11:53 PM 50.0 °F 25.0 °F 38% 30.06 in 10.0 mi NW 8.1 mph - N/A   Clear